Regional Weather Roundup
Issued by NWS Upton, NY

Current Version | Previous Version | Text Only | Print | Product List | Glossary On
Versions: 1 2 3 4 5 6 7 8 9 10 11 12 13 14 15 16 17 18 19 20 21 22 23 24 25 26 27
000 ASUS41 KOKX 260609 RWROKX REGIONAL WEATHER ROUNDUP NATIONAL WEATHER SERVICE NEW YORK NY 200 AM EDT WED JUL 26 2017 NOTE: "FAIR" INDICATES FEW OR NO CLOUDS BELOW 12,000 FEET WITH NO SIGNIFICANT WEATHER AND/OR OBSTRUCTIONS TO VISIBILITY. NYZ071-072-176-178-NJZ106-104-260700- NEW YORK CITY METRO AREA CITY SKY/WX TMP DP RH WIND PRES REMARKS Central Park CLOUDY 67 57 70 VRB6 30.26R Bronx Bot Gard N/A 64 55 72 S1 30.23F LaGuardia APRT CLOUDY 67 59 75 NE10 30.22S Kennedy INTL CLOUDY 67 61 81 E9 30.24R Breezy Point N/A 66 N/A N/A NE5 N/A Newark/Liberty CLOUDY 67 57 70 NE9 30.23R Teterboro CLOUDY 67 57 70 NE5 30.22S $$ NYZ177-179-078>081-260700- LONG ISLAND NEW YORK CITY SKY/WX TMP DP RH WIND PRES REMARKS Jones Beach N/A 64 N/A N/A NE10 N/A Matinecock PT N/A 66 N/A N/A NE8 N/A Farmingdale PTCLDY 64 58 80 CALM 30.23S MacArthur/ISP CLEAR 61 59 93 N3 30.23R Shirley CLEAR 59 57 93 CALM 30.23S Mt Sinai Harb N/A N/A N/A N/A NE5 N/A Westhampton CLEAR 55 52 89 CALM 30.24R East Hampton FAIR 54 53 97 CALM 30.22S Montauk N/A 63 57 81 N7 30.23R $$ NYZ052-065-067-260700- HUDSON VALLEY CITY SKY/WX TMP DP RH WIND PRES REMARKS White Plains CLOUDY 64 56 75 NE5 30.23S Larchmont Harb N/A 64 N/A N/A N6 N/A Croton O-T Hud N/A 64 N/A N/A CALM N/A Newburgh CLOUDY 64 59 82 CALM 30.26S Montgomery CLOUDY 63 61 93 N5 30.25R Poughkeepsie MOCLDY 62 59 90 CALM 30.23S Albany PTCLDY 62 58 86 CALM 30.24F $$ NJZ001-105-106-008-010-013-015-019>022-104-260700- NEW JERSEY CITY SKY/WX TMP DP RH WIND PRES REMARKS Newark/Liberty CLOUDY 67 57 70 NE9 30.23R Teterboro CLOUDY 67 57 70 NE5 30.22S Caldwell CLOUDY 65 59 81 NE5 30.24R Somerville CLOUDY 66 63 90 NW3 30.22R Linden NOT AVBL Perth Amboy N/A 66 N/A N/A NE6 N/A Sussex CLOUDY 63 62 97 CALM 30.25R Andover N/A 63 60 90 CALM 30.25R Trenton CLOUDY 67 64 90 CALM 30.22S Millville CLOUDY 68 66 93 NE3 30.20S Atlantic City CLOUDY 69 63 81 CALM 30.20S Wrightstown CLOUDY 64 64 100 NE5 30.19S Toms River CLOUDY 66 64 93 N3 30.22S Belmar CLOUDY 67 61 81 E6 30.23S $$ PAZ047>061-062-071-260700- EASTERN PENNSYLVANIA CITY SKY/WX TMP DP RH WIND PRES REMARKS Philadelphia CLOUDY 68 63 84 NE6 30.22S Allentown HVY RAIN 66 63 90 E9 30.23S FOG Scranton CLOUDY 64 59 83 CALM 30.24F $$ CTZ002-004>006-009-010-012-RIZ004-006-007-MAZ004-011-015-260700- SOUTHERN NEW ENGLAND IN CT CITY SKY/WX TMP DP RH WIND PRES REMARKS Bradley INTL PTCLDY 56 56 100 CALM 30.23S Hartford CLEAR 58 56 93 CALM 30.23S FOG Danbury CLEAR 58 57 97 SW3 30.26R Wtrbury/Oxford CLEAR 54 48 82 N3 30.25R Bridgeport CLEAR 62 57 83 NW3 30.24R Meriden CLEAR 56 55 97 CALM 30.23S New Haven CLEAR 59 56 89 CALM 30.24R Chester NOT AVBL Groton CLEAR 57 55 93 N6 30.22R Wilimantic MOCLDY 56 54 93 CALM 30.23S IN RI CITY SKY/WX TMP DP RH WIND PRES REMARKS Providence CLEAR 57 56 96 NW3 30.21F Block Island CLEAR 60 56 86 N6 30.21S Westerly CLEAR 58 55 90 N3 30.22S IN MA CITY SKY/WX TMP DP RH WIND PRES REMARKS Boston CLEAR 61 54 77 W3 30.21F Worcester CLEAR 57 54 89 NW10 30.23F Westfield CLEAR 55 55 100 CALM 30.23F Provincetown CLEAR 57 55 93 NW7 30.21R Nantucket PTCLDY 60 58 92 N10 30.19S $$ ANZ330-335-338-340-345-350-353-355-260700- COASTAL MARINE OBSERVATIONS STATION/POSITION TIME SKY/WX TEMP WIND PRES VSBY WAVE AIR SEA DIR/SP/G HT/PER (UTC) (F) (DEG/KT/KT) (MB) (MI) (FT/S) NY HARB ENTRANCE 0450 68 71 50/ 10/ 12 1022.7 3/ 7 20 S FIRE ISLAND 0550 67 73 30/ 12/ 16 1022.5 3/ 4 GREAT SOUTH BAY 0515 66 75 20/ 6/ 8 N/A 23 SSW MONTAUK P 0450 64 72 1023.1 3/ 5 15 E BARNEGAT LI 0530 71 N/A 3/ 5 HUDSON CANYON 0450 67 74 60/ 10/ 12 1021.7 4/ 5 KINGS POINT 0536 80/ 4/ 5 1023.6 EXECUTION ROCKS 0545 67 50/ 10/ 12 N/A CENTRAL LI SOUND NOT AVBL EASTERN LI SOUND NOT AVBL ROBBINS REEF 0536 50/ 11/ 13 1024.0 $$ >>>>>>>>>>>>>>>>>>>>>>>>>>>> KEY <<<<<<<<<<<<<<<<<<<<<<<<<<< > < > SKY/WX - Sky Condition/Present Weather < > TMP - Temperature in Fahrenheit < > DP - Dew Point in Fahrenheit < > RH - Relative Humidity in Percent < > WIND - Direction (from) and Speed in MPH < > PRES - Mean Sea Level Pressure (inches of Hg) < > WCI - Wind Chill Index < > VSB - VISIBILITY IN MILES < > HX - HEAT INDEX < > TC - TEMPERATURE IN CELSIUS < > VRB - VARIABLE WIND DIRECTION < > < >>>>>>>>>>>>>>>>>>>>>>>>>>>> KEY <<<<<<<<<<<<<<<<<<<<<<<<<<<

USA.gov is the U.S. government's official web portal to all federal, state and local government web resources and services.